Location: Unspecified
(0.0000°N, 0.0000°E)
Time: 01:06:02
(UTC+00:00)

ARGOS - Pass Details

Date: 11 July 2022
Orbit: 819 x 835 km, 98.4° (Epoch: 14 August)

Event Time Altitude Azimuth Distance (km) Brightness Sun altitude
Rises 19:07:56 0° 193° (SSW) 3,364 6.2 -14.4°
Reaches altitude 10° 19:10:44 10° 207° (SSW) 2,431 5.6 -15.1°
Maximum altitude 19:14:53 23° 257° (WSW) 1,700 5.4 -16.0°
Drops below altitude 10° 19:19:03 10° 308° (NW) 2,431 6.8 -17.0°
Sets 19:21:52 0° 323° (NW) 3,364 7.4 -17.6°
